Johnstown, PA

7:32 PM EDT on April 24, 2017 (GMT -0400)
Johnstown-Cambria County

Weather History for KJST - March, 2013

Change the Weather History Date:

Wednesday, March 13, 2013

  Actual Average Record
Temperature  
Mean Temperature 24 °F 34 °F  
Max Temperature 30 °F 42 °F 78 °F (1990)
Min Temperature 19 °F 27 °F 2 °F (2014)
Degree Days  
Heating Degree Days 40 31  
Month to date heating degree days 425  
Since 1 July heating degree days 5304  
Cooling Degree Days 0 0  
Month to date cooling degree days 0  
Year to date cooling degree days 0  
Moisture  
Dew Point 22 °F    
Average Humidity 82    
Maximum Humidity 100    
Minimum Humidity 59    
Precipitation  
Precipitation 0.03 in 0.10 in 1.00 in (1907)
Month to date precipitation 1.10  
Year to date precipitation 6.33  
Sea Level Pressure  
Sea Level Pressure 29.89 in    
Wind  
Wind Speed 12 mph (West)    
Max Wind Speed 24 mph    
Max Gust Speed 34 mph    
Visibility 4 miles    
Events Fog , Snow    
T = Trace of Precipitation, MM = Missing Value Source: NWS Daily Summary

Daily Weather History Graph

Daily Weather History Graph

Search for Another Location

Airport or City:

Trip Planner

Search our weather history database for the weather conditions in past years. The results will help you decide how hot, cold, wet, or windy it might be!

Date:

Astronomy

Mar. 13, 2013 Rise Set
Actual Time 7:29 AM EDT 7:20 PM EDT
Civil Twilight 7:02 AM EDT 7:47 PM EDT
Nautical Twilight 6:31 AM EDT 8:19 PM EDT
Astronomical Twilight 5:59 AM EDT 8:50 PM EDT
Moon 8:07 AM EDT (3/13) 9:35 PM EDT (3/13)
Length of Visible Light 12h 44m
Length of Day
11h 50m
Waxing Crescent, 4% of the Moon is Illuminated
Mar 13
Waxing Crescent
Mar 19
First Quarter
Mar 27
Full
Apr 3
Last Quarter
Apr 10
New

Hourly Weather History & Observations

Time (EDT) Temp. Windchill Dew Point Humidity Pressure Visibility Wind Dir Wind Speed Gust Speed Precip Events Conditions
12:26 AM 30.2 °F 19.3 °F 24.8 °F 80% 29.91 in 10.0 mi West 15.0 mph 21.9 mph N/A   Overcast
12:54 AM 30.0 °F 20.0 °F 24.1 °F 79% 29.98 in 10.0 mi West 12.7 mph - N/A   Overcast
2:50 AM 28.4 °F 23.3 °F 23.0 °F 80% 29.88 in 10.0 mi West 4.6 mph - N/A   Overcast
2:54 AM 28.9 °F 25.2 °F 23.0 °F 78% 29.95 in 10.0 mi WSW 3.5 mph - N/A   Overcast
3:54 AM 28.0 °F 21.7 °F 23.0 °F 81% 29.93 in 10.0 mi WSW 5.8 mph - N/A   Overcast
4:11 AM 28.4 °F 23.3 °F 23.0 °F 80% 29.85 in 10.0 mi WSW 4.6 mph - N/A   Overcast
4:21 AM 28.4 °F 22.2 °F 23.0 °F 80% 29.85 in 10.0 mi SW 5.8 mph - N/A   Overcast
4:33 AM 28.4 °F 21.2 °F 23.0 °F 80% 29.85 in 10.0 mi SW 6.9 mph - N/A   Overcast
4:54 AM 28.0 °F 20.0 °F 23.0 °F 81% 29.92 in 4.0 mi WSW 8.1 mph - 0.00 in Snow Light Snow
5:54 AM 28.0 °F 20.0 °F 24.1 °F 85% 29.92 in 10.0 mi WSW 8.1 mph - 0.00 in   Overcast
6:54 AM 28.0 °F 21.7 °F 24.1 °F 85% 29.91 in 10.0 mi SW 5.8 mph - N/A   Overcast
7:22 AM 28.4 °F 21.2 °F 23.0 °F 80% 29.84 in 10.0 mi WSW 6.9 mph - N/A   Overcast
7:30 AM 28.4 °F 21.2 °F 23.0 °F 80% 29.84 in 10.0 mi WSW 6.9 mph - N/A   Overcast
7:54 AM 28.0 °F 20.8 °F 23.0 °F 81% 29.91 in 10.0 mi WSW 6.9 mph - N/A   Overcast
8:44 AM 28.4 °F 20.4 °F 24.8 °F 86% 29.83 in 2.0 mi WSW 8.1 mph - 0.00 in Snow Light Snow
8:54 AM 28.0 °F 20.0 °F 24.1 °F 85% 29.91 in 2.0 mi WSW 8.1 mph - 0.00 in Snow Light Snow
8:56 AM 28.4 °F 20.4 °F 24.8 °F 86% 29.84 in 1.0 mi WSW 8.1 mph - 0.00 in Snow Light Snow
8:58 AM 28.4 °F 21.2 °F 24.8 °F 86% 29.84 in 0.5 mi WSW 6.9 mph - 0.00 in Fog , Snow Snow
9:05 AM 26.6 °F 18.2 °F 24.8 °F 93% 29.84 in 0.2 mi WSW 8.1 mph - 0.01 in Fog , Snow Heavy Snow
9:13 AM 26.6 °F 17.5 °F 26.6 °F 100% 29.84 in 0.5 mi WSW 9.2 mph - 0.01 in Fog , Snow Snow
9:26 AM 26.6 °F 16.8 °F 24.8 °F 93% 29.84 in 1.8 mi West 10.4 mph - 0.01 in Snow Light Snow
9:29 AM 26.6 °F 15.7 °F 24.8 °F 93% 29.84 in 2.0 mi West 12.7 mph - 0.01 in Snow Light Snow
9:51 AM 28.4 °F 18.5 °F 24.8 °F 86% 29.85 in 6.0 mi WSW 11.5 mph 21.9 mph 0.01 in Snow Light Snow
9:52 AM 28.0 °F 18.6 °F 24.1 °F 85% 29.92 in 7.0 mi West 10.4 mph 21.9 mph 0.01 in Snow Light Snow
10:29 AM 28.4 °F 16.2 °F 21.2 °F 74% 29.85 in 10.0 mi WSW 17.3 mph - 0.00 in   Overcast
10:40 AM 28.4 °F 17.5 °F 21.2 °F 74% 29.85 in 10.0 mi West 13.8 mph - 0.00 in   Overcast
10:47 AM 28.4 °F 17.0 °F 21.2 °F 74% 29.85 in 5.0 mi WSW 15.0 mph 23.0 mph 0.00 in Snow Light Snow
10:50 AM 28.4 °F 17.0 °F 23.0 °F 80% 29.85 in 1.5 mi West 15.0 mph 23.0 mph 0.00 in Snow Light Snow
10:52 AM 28.4 °F 16.6 °F 23.0 °F 80% 29.85 in 0.8 mi West 16.1 mph 23.0 mph 0.00 in Snow Light Snow
10:54 AM 27.0 °F 16.1 °F 23.0 °F 85% 29.92 in 0.5 mi West 12.7 mph 20.7 mph 0.00 in Fog , Snow Snow
11:00 AM 28.4 °F 18.5 °F 24.8 °F 86% 29.85 in 0.5 mi West 11.5 mph - 0.00 in Fog , Snow Snow
11:05 AM 28.4 °F 20.4 °F 24.8 °F 86% 29.85 in 1.0 mi West 8.1 mph - 0.00 in Snow Light Snow
11:09 AM 28.4 °F 18.5 °F 24.8 °F 86% 29.85 in 3.0 mi West 11.5 mph - 0.00 in Snow Light Snow
11:20 AM 28.4 °F 17.5 °F 24.8 °F 86% 29.85 in 10.0 mi WNW 13.8 mph 19.6 mph 0.00 in   Overcast
11:40 AM 28.4 °F 16.6 °F 21.2 °F 74% 29.85 in 1.8 mi West 16.1 mph 23.0 mph 0.00 in Snow Light Snow
11:48 AM 28.4 °F 17.5 °F 23.0 °F 80% 29.85 in 3.0 mi West 13.8 mph 21.9 mph 0.00 in Snow Light Snow
11:52 AM 28.4 °F 15.8 °F 23.0 °F 80% 29.84 in 2.5 mi West 18.4 mph 25.3 mph 0.00 in Snow Light Snow
11:54 AM 28.0 °F 15.7 °F 21.9 °F 78% 29.92 in 1.8 mi West 17.3 mph 25.3 mph 0.00 in Snow Light Snow
12:11 PM 28.4 °F 18.0 °F 23.0 °F 80% 29.85 in 1.2 mi WNW 12.7 mph - 0.00 in Snow Light Snow
12:17 PM 28.4 °F 19.1 °F 24.8 °F 86% 29.85 in 3.0 mi WNW 10.4 mph 17.3 mph 0.00 in Snow Light Snow
12:37 PM 28.4 °F 18.0 °F 23.0 °F 80% 29.86 in 1.8 mi West 12.7 mph 20.7 mph 0.00 in Snow Light Snow
12:43 PM 28.4 °F 19.7 °F 23.0 °F 80% 29.85 in 3.0 mi West 9.2 mph - 0.00 in Snow Light Snow
12:54 PM 28.9 °F 16.5 °F 21.9 °F 75% 29.93 in 7.0 mi West 18.4 mph 25.3 mph 0.00 in Snow Light Snow
1:13 PM 28.4 °F 17.0 °F 21.2 °F 74% 29.86 in 1.5 mi West 15.0 mph 23.0 mph 0.00 in Snow Light Snow
1:22 PM 28.4 °F 19.7 °F 24.8 °F 86% 29.86 in 0.5 mi West 9.2 mph 20.7 mph 0.00 in Fog , Snow Snow
1:28 PM 28.4 °F 20.4 °F 26.6 °F 93% 29.85 in 2.0 mi West 8.1 mph - 0.00 in Snow Light Snow
1:35 PM 28.4 °F 18.0 °F 24.8 °F 86% 29.85 in 9.0 mi WSW 12.7 mph - 0.00 in   Mostly Cloudy
1:44 PM 28.4 °F 18.0 °F 24.8 °F 86% 29.85 in 2.5 mi SW 12.7 mph - 0.00 in Snow Light Snow
1:46 PM 28.4 °F 18.5 °F 24.8 °F 86% 29.85 in 1.5 mi WSW 11.5 mph - 0.00 in Snow Light Snow
1:54 PM 28.0 °F 16.5 °F 25.0 °F 88% 29.92 in 0.5 mi WSW 15.0 mph 19.6 mph 0.01 in Fog , Snow Light Snow
1:56 PM 26.6 °F 14.3 °F 24.8 °F 93% 29.85 in 0.2 mi West 16.1 mph 19.6 mph 0.00 in Fog , Snow Heavy Snow
2:03 PM 26.6 °F 15.2 °F 26.6 °F 100% 29.85 in 0.2 mi West 13.8 mph - 0.00 in Fog , Snow Heavy Snow
2:13 PM 26.6 °F 13.4 °F 24.8 °F 93% 29.86 in 1.2 mi WNW 18.4 mph 24.2 mph 0.00 in Snow Light Snow
2:16 PM 26.6 °F 15.2 °F 24.8 °F 93% 29.86 in 2.0 mi WNW 13.8 mph 24.2 mph 0.00 in Snow Light Snow
2:25 PM 26.6 °F 15.2 °F 24.8 °F 93% 29.85 in 1.2 mi West 13.8 mph 23.0 mph 0.00 in Snow Light Snow
2:30 PM 26.6 °F 16.8 °F 24.8 °F 93% 29.85 in 3.0 mi West 10.4 mph 23.0 mph 0.00 in Snow Light Snow
2:39 PM 28.4 °F 16.6 °F 23.0 °F 80% 29.85 in 9.0 mi West 16.1 mph 26.5 mph 0.00 in Snow Light Snow
2:54 PM 28.9 °F 15.4 °F 21.0 °F 72% 29.92 in 10.0 mi West 21.9 mph 29.9 mph 0.00 in   Overcast
3:09 PM 30.2 °F 18.5 °F 21.2 °F 69% 29.84 in 10.0 mi West 17.3 mph 29.9 mph 0.00 in   Overcast
3:54 PM 30.9 °F 19.1 °F 18.0 °F 59% 29.91 in 10.0 mi WSW 18.4 mph 28.8 mph 0.00 in   Mostly Cloudy
4:33 PM 26.6 °F 13.8 °F 21.2 °F 80% 29.86 in 2.0 mi WNW 17.3 mph 27.6 mph 0.00 in Snow Light Snow
4:54 PM 28.0 °F 17.0 °F 21.9 °F 78% 29.95 in 4.0 mi West 13.8 mph 20.7 mph 0.00 in Snow Light Snow
5:17 PM 28.4 °F 17.5 °F 19.4 °F 69% 29.87 in 10.0 mi West 13.8 mph 21.9 mph 0.00 in   Overcast
5:28 PM 26.6 °F 11.7 °F 19.4 °F 74% 29.89 in 1.5 mi WNW 24.2 mph 32.2 mph 0.00 in Snow Light Snow
5:30 PM 24.8 °F 10.0 °F 19.4 °F 80% 29.89 in 0.8 mi West 21.9 mph 32.2 mph 0.00 in Snow Light Snow
5:40 PM 24.8 °F 12.9 °F 19.4 °F 80% 29.88 in 2.5 mi West 13.8 mph 31.1 mph 0.00 in Snow Light Snow
5:43 PM 26.6 °F 14.7 °F 17.6 °F 69% 29.88 in 7.0 mi West 15.0 mph 31.1 mph 0.00 in Snow Light Snow
5:54 PM 26.1 °F 13.1 °F 17.1 °F 69% 29.96 in 10.0 mi West 17.3 mph 29.9 mph 0.00 in   Overcast
6:15 PM 26.6 °F 16.2 °F 17.6 °F 69% 29.90 in 2.0 mi WNW 11.5 mph 24.2 mph 0.00 in Snow Light Snow
6:18 PM 24.8 °F 12.4 °F 19.4 °F 80% 29.91 in 1.0 mi WNW 15.0 mph 23.0 mph 0.00 in Snow Light Snow
6:23 PM 24.8 °F 12.4 °F 21.2 °F 86% 29.91 in 0.2 mi WNW 15.0 mph - 0.00 in Fog , Snow Snow
6:28 PM 24.8 °F 10.7 °F 19.4 °F 80% 29.90 in 0.5 mi West 19.6 mph 27.6 mph 0.00 in Snow Snow
6:30 PM 24.8 °F 14.0 °F 17.6 °F 74% 29.90 in 0.5 mi West 11.5 mph 27.6 mph 0.00 in Snow Snow
6:33 PM 24.8 °F 11.5 °F 19.4 °F 80% 29.90 in 2.0 mi West 17.3 mph 27.6 mph 0.00 in Snow Light Snow
6:40 PM 24.8 °F 12.4 °F 17.6 °F 74% 29.90 in 9.0 mi West 15.0 mph 21.9 mph 0.00 in   Overcast
6:54 PM 25.0 °F 13.6 °F 18.0 °F 75% 29.99 in 10.0 mi West 12.7 mph 25.3 mph 0.00 in   Overcast
7:03 PM 24.8 °F 11.5 °F 19.4 °F 80% 29.91 in 1.8 mi WNW 17.3 mph 21.9 mph 0.00 in Snow Light Snow
7:07 PM 24.8 °F 11.5 °F 19.4 °F 80% 29.91 in 0.8 mi WNW 17.3 mph - 0.00 in Snow Light Snow
7:13 PM 23.0 °F 9.2 °F 19.4 °F 86% 29.91 in 0.2 mi WNW 17.3 mph 26.5 mph 0.00 in Fog , Snow Heavy Snow
7:22 PM 23.0 °F 9.2 °F 19.4 °F 86% 29.92 in 0.5 mi West 17.3 mph 32.2 mph 0.00 in Fog , Snow Snow
7:44 PM 21.2 °F 5.6 °F 19.4 °F 93% 29.93 in 1.5 mi WNW 20.7 mph 29.9 mph 0.01 in Snow Light Snow
7:50 PM 21.2 °F 5.2 °F 19.4 °F 93% 29.93 in 2.5 mi West 21.9 mph 31.1 mph 0.01 in Snow Light Snow
7:54 PM 21.9 °F 7.8 °F 18.0 °F 85% 30.02 in 3.0 mi WNW 17.3 mph 31.1 mph 0.01 in Snow Light Snow
7:57 PM 21.2 °F 7.8 °F 17.6 °F 86% 29.93 in 4.0 mi West 15.0 mph 28.8 mph 0.00 in Snow Light Snow
8:08 PM 21.2 °F 8.3 °F 17.6 °F 86% 29.93 in 4.0 mi West 13.8 mph 28.8 mph 0.00 in Snow Light Snow
8:54 PM 21.9 °F 7.3 °F 16.0 °F 78% 30.03 in 3.0 mi West 18.4 mph 31.1 mph 0.00 in Snow Light Snow
9:01 PM 21.2 °F 6.4 °F 15.8 °F 80% 29.93 in 2.5 mi WNW 18.4 mph 27.6 mph 0.00 in Snow Light Snow
9:08 PM 21.2 °F 7.3 °F 15.8 °F 80% 29.94 in 5.0 mi West 16.1 mph 27.6 mph 0.00 in Snow Light Snow
9:54 PM 23.0 °F 10.1 °F 14.0 °F 68% 30.03 in 10.0 mi West 15.0 mph 28.8 mph 0.00 in   Overcast
10:21 PM 21.2 °F 5.2 °F 15.8 °F 80% 29.95 in 1.8 mi West 21.9 mph 34.5 mph 0.00 in Snow Light Snow
10:27 PM 21.2 °F 4.9 °F 15.8 °F 80% 29.95 in 3.0 mi WNW 23.0 mph 34.5 mph 0.00 in Snow Light Snow
10:42 PM 21.2 °F 6.0 °F 17.6 °F 86% 29.96 in 2.0 mi West 19.6 mph 32.2 mph 0.00 in Snow Light Snow
10:54 PM 21.9 °F 8.2 °F 16.0 °F 78% 30.05 in 3.0 mi West 16.1 mph 25.3 mph 0.00 in Snow Light Snow
11:32 PM 21.2 °F 6.4 °F 17.6 °F 86% 29.96 in 1.5 mi WNW 18.4 mph 25.3 mph 0.00 in Snow Light Snow
11:40 PM 21.2 °F 8.3 °F 17.6 °F 86% 29.96 in 0.2 mi WNW 13.8 mph - 0.00 in Fog , Snow Heavy Snow
11:47 PM 19.4 °F 2.5 °F 17.6 °F 93% 29.96 in 0.2 mi WNW 23.0 mph 28.8 mph 0.00 in Fog , Snow Heavy Snow
11:54 PM 19.9 °F 3.2 °F 17.1 °F 89% 30.05 in 0.5 mi WNW 23.0 mph 32.2 mph 0.00 in Fog , Snow Snow